Weather History for KHYR - April, 2013

Change the Weather History Date:

Saturday, April 13, 2013

  Actual Average Record
Temperature  
Mean Temperature 28 °F -  
Max Temperature 34 °F 63 °F 72 °F (2006)
Min Temperature 19 °F 36 °F 7 °F (2008)
Degree Days  
Heating Degree Days 38    
Moisture  
Dew Point 20 °F    
Average Humidity 76    
Maximum Humidity 93    
Minimum Humidity 54    
Precipitation  
Precipitation 0.01 in - - ()
Sea Level Pressure  
Sea Level Pressure 29.86 in    
Wind  
Wind Speed 1 mph (WNW)    
Max Wind Speed 7 mph    
Max Gust Speed -    
Visibility 8 miles    
Events Snow    
Averages and records for this station are not official NWS values.
T = Trace of Precipitation, MM = Missing Value Source: NWS Daily Summary

Daily Weather History Graph

Daily Weather History Graph

Search for Another Location

Airport or City:

Trip Planner

Search our weather history database for the weather conditions in past years. The results will help you decide how hot, cold, wet, or windy it might be!

Date:

Astronomy

Apr. 13, 2013 Rise Set
Actual Time 6:22 AM CDT 7:50 PM CDT
Civil Twilight 5:51 AM CDT 8:21 PM CDT
Nautical Twilight 5:13 AM CDT 8:59 PM CDT
Astronomical Twilight 4:33 AM CDT 9:40 PM CDT
Moon 8:05 AM CDT (4/13) 11:24 PM CDT (4/13)
Length of Visible Light 14h 30m
Length of Day
13h 27m
Waxing Crescent, 10% of the Moon is Illuminated
Apr 13
Waxing Crescent
Apr 18
First Quarter
Apr 25
Full
May 2
Last Quarter
May 9
New

Hourly Weather History & Observations

Time (CDT) Temp. Windchill Dew Point Humidity Pressure Visibility Wind Dir Wind Speed Gust Speed Precip Events Conditions
12:53 AM 25.0 °F - 19.9 °F 81% 29.84 in 10.0 mi Calm Calm - N/A   Overcast
1:01 AM 24.8 °F - 21.2 °F 86% 29.79 in 10.0 mi Calm Calm - N/A   Overcast
1:53 AM 25.0 °F 20.7 °F 21.0 °F 85% 29.84 in 10.0 mi Variable 3.5 mph - N/A   Overcast
2:15 AM 24.8 °F - 19.4 °F 80% 29.79 in 9.0 mi Calm Calm - 0.00 in Snow Light Snow
2:39 AM 24.8 °F - 19.4 °F 80% 29.78 in 8.0 mi Calm Calm - 0.00 in   Overcast
2:49 AM 24.8 °F - 19.4 °F 80% 29.78 in 9.0 mi Calm Calm - 0.00 in   Overcast
2:53 AM 24.1 °F - 19.9 °F 84% 29.83 in 8.0 mi Calm Calm - 0.00 in   Overcast
3:53 AM 24.1 °F - 19.9 °F 84% 29.83 in 10.0 mi Calm Calm - N/A   Overcast
4:20 AM 23.0 °F - 19.4 °F 86% 29.78 in 2.5 mi Calm Calm - 0.00 in Snow Light Snow
4:23 AM 23.0 °F - 19.4 °F 86% 29.78 in 3.0 mi Calm Calm - 0.00 in Snow Light Snow
4:30 AM 23.0 °F - 19.4 °F 86% 29.78 in 6.0 mi Calm Calm - 0.00 in   Overcast
4:53 AM 23.0 °F - 19.9 °F 88% 29.83 in 9.0 mi Calm Calm - 0.00 in   Overcast
5:53 AM 21.9 °F - 19.0 °F 89% 29.84 in 10.0 mi Calm Calm - N/A   Overcast
6:46 AM 21.2 °F - 19.4 °F 93% 29.79 in 3.0 mi Calm Calm - 0.00 in Snow Light Snow
6:53 AM 21.9 °F - 19.0 °F 89% 29.85 in 4.0 mi Calm Calm - 0.00 in Snow Light Snow
7:53 AM 23.0 °F - 19.9 °F 88% 29.86 in 5.0 mi Calm Calm - 0.00 in Snow Light Snow
8:53 AM 26.1 °F 20.5 °F 19.9 °F 78% 29.86 in 10.0 mi Variable 4.6 mph - 0.00 in   Overcast
9:53 AM 27.0 °F - 19.0 °F 72% 29.86 in 9.0 mi Calm Calm - 0.00 in Snow Light Snow
10:53 AM 28.9 °F 21.9 °F 18.0 °F 64% 29.87 in 10.0 mi WNW 6.9 mph - 0.00 in   Overcast
11:39 AM 28.4 °F 24.6 °F 19.4 °F 69% 29.83 in 4.0 mi Variable 3.5 mph - 0.00 in Snow Light Snow
11:46 AM 28.4 °F 24.6 °F 19.4 °F 69% 29.83 in 8.0 mi Variable 3.5 mph - 0.00 in Snow Light Snow
11:53 AM 28.9 °F 25.2 °F 18.0 °F 64% 29.88 in 9.0 mi Variable 3.5 mph - 0.00 in Snow Light Snow
12:53 PM 30.9 °F 25.2 °F 18.0 °F 59% 29.88 in 10.0 mi Variable 5.8 mph - 0.00 in   Overcast
1:53 PM 32.0 °F 26.4 °F 17.1 °F 54% 29.89 in 10.0 mi WNW 5.8 mph - 0.00 in   Overcast
2:53 PM 30.9 °F 25.2 °F 21.0 °F 67% 29.91 in 2.0 mi West 5.8 mph - 0.00 in Snow Light Snow
3:03 PM 30.2 °F 25.4 °F 21.2 °F 69% 29.85 in 4.0 mi Variable 4.6 mph - 0.00 in Snow Light Snow
3:18 PM 32.0 °F 28.7 °F 21.2 °F 64% 29.86 in 8.0 mi Variable 3.5 mph - 0.00 in Snow Light Snow
3:53 PM 34.0 °F - 19.9 °F 56% 29.91 in 10.0 mi Calm Calm - 0.00 in   Overcast
4:53 PM 32.0 °F - 23.0 °F 69% 29.92 in 9.0 mi Calm Calm - 0.01 in   Overcast
5:53 PM 34.0 °F 31.0 °F 19.0 °F 54% 29.93 in 10.0 mi Variable 3.5 mph - N/A   Overcast
6:53 PM 32.0 °F - 21.0 °F 64% 29.95 in 8.0 mi Calm Calm - 0.00 in Snow Light Snow
7:53 PM 30.0 °F - 21.9 °F 72% 29.95 in 10.0 mi Calm Calm - 0.00 in   Mostly Cloudy
8:53 PM 27.0 °F - 21.0 °F 78% 29.96 in 10.0 mi Calm Calm - N/A   Clear
9:53 PM 24.1 °F - 19.0 °F 81% 29.99 in 10.0 mi Calm Calm - N/A   Clear
10:53 PM 21.0 °F - 18.0 °F 88% 30.00 in 10.0 mi Calm Calm - N/A   Clear
11:53 PM 19.9 °F - 16.0 °F 85% 30.02 in 10.0 mi Calm Calm - N/A   Clear